Regional Weather Roundup
Issued by NWS Upton, NY

Current Version | Previous Version | Text Only | Print | Product List | Glossary On
Versions: 1 2 3 4 5 6 7 8 9 10 11 12 13 14 15 16 17 18 19 20 21 22 23 24 25 26 27 28 29 30 31 32 33 34 35 36 37 38 39 40 41 42 43 44 45 46 47 48 49 50
000
ASUS41 KOKX 031005
RWROKX

REGIONAL WEATHER ROUNDUP
NATIONAL WEATHER SERVICE NEW YORK NY
500 AM EST TUE MAR 03 2015

NOTE: "FAIR" INDICATES FEW OR NO CLOUDS BELOW 12,000 FEET WITH NO
SIGNIFICANT WEATHER AND/OR OBSTRUCTIONS TO VISIBILITY.

NYZ071-072-176-178-NJZ106-104-031100-
NEW YORK CITY METRO AREA


CITY           SKY/WX    TMP DP  RH WIND       PRES   REMARKS
CENTRAL PARK   CLEAR     24   7  48 NW5       30.43R WCI  18
LAGUARDIA APRT PTCLDY    25  10  53 NW9       30.41R WCI  15
KENNEDY INTL   CLEAR     24   8  50 NW7       30.43R WCI  16
NEWARK/LIBERTY PTCLDY    22   9  57 W5        30.43R WCI  16
BRNX BOT. GARD   N/A    N/A N/A N/A N3        30.42R
TETERBORO      CLEAR     15   5  64 CALM      30.41R
$$

NYZ177-179-078>081-031100-
LONG ISLAND NEW YORK

CITY           SKY/WX    TMP DP  RH WIND       PRES   REMARKS
FARMINGDALE    CLEAR     19   9  65 NW6       30.40S WCI  11
ISLIP          NOT AVBL
SHIRLEY        CLEAR     19   6  57 CALM      30.41R
WESTHAMPTON    CLEAR     15   4  61 CALM      30.41R
MONTAUK POINT  NOT AVBL
$$

NYZ052-065-067-031100-
HUDSON VALLEY

CITY           SKY/WX    TMP DP  RH WIND       PRES   REMARKS
WHITE PLAINS   CLEAR     12   5  73 NW3       30.37R
NEWBURGH       NOT AVBL
MONTGOMERY     CLEAR      5   0  79 SW3       30.38R
POUGHKEEPSIE   CLEAR      4   0  83 CALM      30.40R
ALBANY         CLEAR     14   4  64 NW3       30.38R
$$

NJZ001-105-106-008-010-013-015-019>022-104-031100-
NEW JERSEY

CITY           SKY/WX    TMP DP  RH WIND       PRES   REMARKS
NEWARK/LIBERTY PTCLDY    22   9  57 W5        30.43R WCI  16
TETERBORO      CLEAR     15   5  64 CALM      30.41R
CALDWELL       CLEAR     12   5  73 CALM      30.42R
MORRISTOWN     CLEAR     10   3  72 CALM      30.41S
SOMERVILLE     CLEAR     14   6  70 N5        30.40R WCI   6
SUSSEX         CLEAR      7   1  76 CALM      30.39R
ANDOVER          N/A      5   1  83 N5        30.38R WCI  -4
TRENTON        CLEAR     21   7  54 W5        30.42R WCI  15
MILLVILLE      PTCLDY    24  14  65 N3        30.44R
ATLANTIC CITY  CLEAR     21  11  65 N5        30.43R WCI  15
WRIGHTSTOWN    CLEAR     20  10  67 NW5       30.40R WCI  13
TOMS RIVER     CLEAR     19  12  73 CALM      30.43R
BELMAR         CLEAR     21   7  53 NW6       30.40R WCI  14
$$

PAZ047>061-062-071-031100-
EASTERN PENNSYLVANIA

CITY           SKY/WX    TMP DP  RH WIND       PRES   REMARKS
PHILADELPHIA   MOCLDY    25  11  55 N7        30.46R WCI  17
ALLENTOWN      CLEAR     13   6  74 NW5       30.40S WCI   5
SCRANTON       PTCLDY    12   5  73 CALM      30.35S
$$

CTZ002-004>006-009-010-012-RIZ004-006-007-MAZ004-011-015-031100-
SOUTHERN NEW ENGLAND
 IN CT

CITY           SKY/WX    TMP DP  RH WIND       PRES   REMARKS
BRADLEY INTL   CLEAR     15   3  59 W7        30.37R WCI   5
HARTFORD       CLEAR     19   7  59 W8        30.39R WCI   9
DANBURY        CLEAR      4  -2  76 CALM      30.39R
WTRBRY/OXFORD  CLEAR     18   1  49 NW3       30.35R
BRIDGEPORT     CLEAR     18   7  62 NW7       30.40R WCI   9
MERIDEN        CLEAR     12   5  73 NW3       30.39R
NEW HAVEN      CLEAR     21   7  54 NW5       30.40R WCI  15
CHESTER        FAIR      21   9  58 CALM      30.37R
GROTON         CLEAR     13   5  70 CALM      30.39R
WILLIMANTIC    CLEAR      6   0  76 CALM      30.37R

 IN RI

CITY           SKY/WX    TMP DP  RH WIND       PRES   REMARKS
PROVIDENCE     CLEAR     14   4  64 N3        30.37R
BLOCK ISLAND   CLEAR     25   9  50 NW8       30.35R WCI  16
WESTERLY       CLEAR     18   7  62 CALM      30.38R

 IN MA

CITY           SKY/WX    TMP DP  RH WIND       PRES   REMARKS
BOSTON         CLEAR     21   4  47 NW6       30.36R WCI  13
WORCESTER      CLEAR     15   5  64 W5        30.28R WCI   8
WESTFIELD      CLEAR     11   3  70 SW3       30.36R
PROVINCETOWN   CLEAR     25   7  46 NW18G29   30.35R WCI  11
NANTUCKET      CLEAR     25   6  44 NW18G24   30.35R WCI  11
$$

ANZ330-335-338-340-345-350-353-355-031100-
COASTAL MARINE OBSERVATIONS


STATION/POSITION TIME  SKY/WX   TEMP    WIND        PRES    VSBY  WAVE
                                AIR SEA DIR/SP/G                  HT/PER
                 (UTC)          (F)     (DEG/KT/KT) (MB)    (MI)  (FT/S)
NY HARB ENTRANCE 1000            28 38  340/ 10/ 12 1029.4          1/ 9
4S FIRE IS       NOT AVBL
20S FIRE ISLAND  0900               36              1029.3          3/ 5
23SW MTP         1000                                 N/A           4/ 4
HUDSON CANYON    NOT AVBL
EXECUTION ROCKS  NOT AVBL
WESTERN LI SOUND NOT AVBL
CENTRAL LI SOUND NOT AVBL
EASTERN LI SOUND NOT AVBL
ROBBINS REEF     1000                               1029.0
$$


>>>>>>>>>>>>>>>>>>>>>>>>>>>> KEY <<<<<<<<<<<<<<<<<<<<<<<<<<<
>                                                          <
>     SKY/WX - SKY CONDITION/PRESENT WEATHER               <
>     TMP    - TEMPERATURE IN FAHRENHEIT                   <
>     DP     - DEWPOINT IN FAHRENHEIT                      <
>     RH     - RELATIVE HUMIDITY IN PERCENT                <
>     WIND   - DIRECTION AND SPEED IN MPH                  <
>     PRES   - MEAN SEA LEVEL PRESSURE IN INCHES OF HG     <
>     WCI    - WIND CHILL INDEX                            <
>     VSB    - VISIBILITY IN MILES                         <
>     HX     - HEAT INDEX                                  <
>     TC     - TEMPERATURE IN CELSIUS                      <
>     VRB    - VARIABLE WIND DIRECTION                     <
>                                                          <
>>>>>>>>>>>>>>>>>>>>>>>>>>>> KEY <<<<<<<<<<<<<<<<<<<<<<<<<<<




USA.gov is the U.S. government's official web portal to all federal, state and local government web resources and services.